Location: Baix
(44.7118°N, 4.7648°E)
Time: 01:05:10
(UTC+00:00)

Cosmos 44 Rocket - Pass Details

Date: 07 August 2020
Orbit: 647 x 743 km, 65.1° (Epoch: 19 September)

Event Time Altitude Azimuth Distance (km) Brightness Sun altitude
Rises 00:48:33 0° 324° (NW) 3,094 7.1 -27.4°
Reaches altitude 10° 00:50:53 10° 324° (NW) 2,187 6.3 -27.2°
Enters shadow 00:55:09 66° 316° (NW) 789 3.5 -27.0°
